TimeCDT,TemperatureF,Dew PointF,Humidity,Sea Level PressureIn,VisibilityMPH,Wind Direction,Wind SpeedMPH,Gust SpeedMPH,PrecipitationIn,Events,Conditions,WindDirDegrees,DateUTC
12:15 AM,71.4,56.1,58,30.03,10.0,Calm,Calm,-,N/A,,Unknown,0,2013-07-04 05:15:00
12:35 AM,70.3,57.4,63,30.02,10.0,Calm,Calm,-,N/A,,Unknown,0,2013-07-04 05:35:00
12:55 AM,70.7,57.2,62,30.02,10.0,Calm,Calm,-,N/A,,Unknown,0,2013-07-04 05:55:00
1:15 AM,69.4,56.8,64,30.03,10.0,Calm,Calm,-,N/A,,Unknown,0,2013-07-04 06:15:00
1:35 AM,68.4,56.8,67,30.02,10.0,Calm,Calm,-,N/A,,Unknown,0,2013-07-04 06:35:00
1:55 AM,67.1,57.4,71,30.02,10.0,Calm,Calm,-,N/A,,Unknown,0,2013-07-04 06:55:00
2:15 AM,67.6,57.4,70,30.02,10.0,Calm,Calm,-,N/A,,Unknown,0,2013-07-04 07:15:00
2:35 AM,68.7,58.1,69,30.02,10.0,Calm,Calm,-,N/A,,Unknown,0,2013-07-04 07:35:00
2:55 AM,69.4,57.4,65,30.02,10.0,Calm,Calm,-,N/A,,Unknown,0,2013-07-04 07:55:00
3:15 AM,68.5,57.6,68,30.02,10.0,Calm,Calm,-,N/A,,Unknown,0,2013-07-04 08:15:00
3:35 AM,68.9,58.1,68,30.02,10.0,Calm,Calm,-,N/A,,Unknown,0,2013-07-04 08:35:00
3:55 AM,66.6,58.3,75,30.02,10.0,Calm,Calm,-,N/A,,Unknown,0,2013-07-04 08:55:00
4:15 AM,65.3,58.3,78,30.02,10.0,Calm,Calm,-,N/A,,Unknown,0,2013-07-04 09:15:00
4:35 AM,66.0,59.0,78,30.02,10.0,Calm,Calm,-,N/A,,Unknown,0,2013-07-04 09:35:00
4:55 AM,65.3,59.9,83,30.02,10.0,Calm,Calm,-,N/A,,Unknown,0,2013-07-04 09:55:00
5:15 AM,63.3,58.5,84,30.02,7.0,Calm,Calm,-,N/A,,Unknown,0,2013-07-04 10:15:00
5:35 AM,63.5,59.0,85,30.02,7.0,Calm,Calm,-,N/A,,Unknown,0,2013-07-04 10:35:00
5:55 AM,62.8,59.0,87,30.02,10.0,Calm,Calm,-,N/A,,Unknown,0,2013-07-04 10:55:00
6:15 AM,64.4,59.0,83,30.03,10.0,Calm,Calm,-,N/A,,Unknown,0,2013-07-04 11:15:00
6:35 AM,62.8,58.6,86,30.03,10.0,Calm,Calm,-,N/A,,Unknown,0,2013-07-04 11:35:00
6:55 AM,64.0,59.2,84,30.03,10.0,Calm,Calm,-,N/A,,Unknown,0,2013-07-04 11:55:00
7:15 AM,64.6,59.5,84,30.04,10.0,Calm,Calm,-,N/A,,Unknown,0,2013-07-04 12:15:00
7:35 AM,66.9,60.1,79,30.04,10.0,Calm,Calm,-,N/A,,Unknown,0,2013-07-04 12:35:00
7:55 AM,68.7,59.4,72,30.04,10.0,Calm,Calm,-,N/A,,Unknown,0,2013-07-04 12:55:00
8:15 AM,70.7,59.9,69,30.05,7.0,Calm,Calm,-,N/A,,Unknown,0,2013-07-04 13:15:00
8:35 AM,72.9,60.6,65,30.05,7.0,Calm,Calm,-,N/A,,Unknown,0,2013-07-04 13:35:00
8:55 AM,73.8,59.7,61,30.06,5.0,Calm,Calm,-,N/A,,Unknown,0,2013-07-04 13:55:00
9:15 AM,74.8,59.2,58,30.06,10.0,SSE,5.8,-,N/A,,Unknown,150,2013-07-04 14:15:00
9:35 AM,76.8,58.3,53,30.06,10.0,Calm,Calm,-,N/A,,Unknown,0,2013-07-04 14:35:00
9:55 AM,78.1,58.1,50,30.06,10.0,Calm,Calm,-,N/A,,Unknown,0,2013-07-04 14:55:00
10:15 AM,79.0,58.8,50,30.06,10.0,Calm,Calm,-,N/A,,Unknown,0,2013-07-04 15:15:00
10:35 AM,81.1,58.8,46,30.05,10.0,Calm,Calm,-,N/A,,Unknown,0,2013-07-04 15:35:00
10:55 AM,82.6,58.6,44,30.05,7.0,SSE,5.8,-,N/A,,Unknown,150,2013-07-04 15:55:00
11:15 AM,84.0,58.3,41,30.05,10.0,SE,5.8,-,N/A,,Unknown,130,2013-07-04 16:15:00
11:35 AM,85.5,58.1,39,30.05,7.0,Calm,Calm,-,N/A,,Unknown,0,2013-07-04 16:35:00
11:55 AM,86.0,56.5,36,30.04,10.0,Calm,Calm,-,N/A,,Unknown,0,2013-07-04 16:55:00
12:15 PM,86.2,57.2,37,30.04,10.0,Calm,Calm,-,N/A,,Unknown,0,2013-07-04 17:15:00
12:35 PM,86.9,57.0,36,30.03,10.0,Calm,Calm,-,N/A,,Unknown,0,2013-07-04 17:35:00
12:55 PM,86.9,55.4,34,30.03,10.0,Calm,Calm,-,N/A,,Unknown,0,2013-07-04 17:55:00
1:15 PM,88.2,53.4,30,30.02,7.0,Calm,Calm,-,N/A,,Unknown,0,2013-07-04 18:15:00
1:35 PM,88.9,53.6,30,30.01,10.0,East,5.8,-,N/A,,Unknown,90,2013-07-04 18:35:00
1:55 PM,89.8,51.4,27,30.00,10.0,Calm,Calm,-,N/A,,Unknown,0,2013-07-04 18:55:00
2:15 PM,87.1,52.5,30,30.00,10.0,Calm,Calm,-,N/A,,Unknown,0,2013-07-04 19:15:00
2:35 PM,87.8,52.9,30,29.98,10.0,ENE,8.1,-,N/A,,Unknown,60,2013-07-04 19:35:00
2:55 PM,90.1,51.8,27,29.99,10.0,NNE,6.9,-,N/A,,Unknown,30,2013-07-04 19:55:00
3:15 PM,89.4,51.1,27,29.99,10.0,Calm,Calm,-,N/A,,Unknown,0,2013-07-04 20:15:00
3:35 PM,87.8,50.4,27,29.98,10.0,NE,5.8,-,N/A,,Unknown,50,2013-07-04 20:35:00
3:55 PM,87.1,50.2,28,29.97,10.0,ENE,4.6,-,N/A,,Unknown,70,2013-07-04 20:55:00
4:15 PM,86.0,50.2,29,29.99,10.0,Calm,Calm,-,N/A,,Unknown,0,2013-07-04 21:15:00
4:35 PM,84.9,54.9,36,29.99,10.0,Calm,Calm,-,N/A,,Unknown,0,2013-07-04 21:35:00
4:55 PM,80.2,59.5,49,29.99,10.0,West,9.2,-,N/A,,Unknown,270,2013-07-04 21:55:00
5:15 PM,80.1,59.9,50,29.99,10.0,WNW,8.1,-,N/A,,Unknown,290,2013-07-04 22:15:00
5:35 PM,80.6,59.5,49,29.97,10.0,Calm,Calm,-,N/A,,Unknown,0,2013-07-04 22:35:00
5:55 PM,80.1,60.3,51,29.96,10.0,Calm,Calm,-,N/A,,Unknown,0,2013-07-04 22:55:00
6:15 PM,81.5,60.3,48,29.97,10.0,Calm,Calm,-,N/A,,Unknown,0,2013-07-04 23:15:00
6:35 PM,84.6,59.0,42,29.96,10.0,Calm,Calm,-,N/A,,Unknown,0,2013-07-04 23:35:00
6:55 PM,83.7,61.0,46,29.96,10.0,Calm,Calm,-,N/A,,Unknown,0,2013-07-04 23:55:00
7:15 PM,83.5,60.4,46,29.96,10.0,Calm,Calm,-,N/A,,Unknown,0,2013-07-05 00:15:00
7:35 PM,82.4,62.4,51,29.96,10.0,Calm,Calm,-,N/A,,Unknown,0,2013-07-05 00:35:00
7:55 PM,81.3,63.5,55,29.97,10.0,Calm,Calm,-,N/A,,Unknown,0,2013-07-05 00:55:00
8:15 PM,80.4,63.7,57,29.97,10.0,Calm,Calm,-,N/A,,Unknown,0,2013-07-05 01:15:00
8:35 PM,79.0,63.7,59,29.97,10.0,Calm,Calm,-,N/A,,Unknown,0,2013-07-05 01:35:00
8:55 PM,77.5,65.3,66,29.97,10.0,Calm,Calm,-,N/A,,Unknown,0,2013-07-05 01:55:00
9:15 PM,76.8,64.0,65,29.97,10.0,Calm,Calm,-,N/A,,Unknown,0,2013-07-05 02:15:00
9:35 PM,73.8,65.3,75,29.98,10.0,Calm,Calm,-,N/A,,Unknown,0,2013-07-05 02:35:00
9:55 PM,74.1,64.0,71,29.99,10.0,Calm,Calm,-,N/A,,Unknown,0,2013-07-05 02:55:00
10:15 PM,70.9,67.1,88,29.99,7.0,Calm,Calm,-,N/A,,Unknown,0,2013-07-05 03:15:00
10:35 PM,72.0,66.6,83,30.00,10.0,Calm,Calm,-,N/A,,Unknown,0,2013-07-05 03:35:00
10:55 PM,71.6,65.5,81,30.00,10.0,Calm,Calm,-,N/A,,Unknown,0,2013-07-05 03:55:00
11:15 PM,70.2,65.7,86,30.00,10.0,Calm,Calm,-,N/A,,Unknown,0,2013-07-05 04:15:00
11:35 PM,69.8,65.3,86,30.00,7.0,Calm,Calm,-,N/A,,Unknown,0,2013-07-05 04:35:00
11:55 PM,70.0,63.7,80,30.00,10.0,Calm,Calm,-,N/A,,Unknown,0,2013-07-05 04:55:00